KF6ILA Weather Reports


time (UTC)temp
F
wind
direction
speed
knots
gust
knots
rain 1hr
in
rain 24hr
in
rain mn
in
humidity
%
barometer
mb
20260902131140 62 248 13.9 20.9 0.00 0.00 0.00 27 1015.6
20260902125650 62 255 15.6 23.5 0.00 0.00 0.00 27 1015.3
20260902124158 62 257 15.6 21.7 0.00 0.00 0.00 27 1015.4
20260902123702 62 263 17.4 22.6 0.00 0.00 0.00 27 1015.4
20260902123204 63 256 15.6 22.6 0.00 0.00 0.00 27 1015.4
20260902122707 62 260 14.8 20.9 0.00 0.00 0.00 26 1015.4
20260902122210 63 256 15.6 20.9 0.00 0.00 0.00 27 1015.4
20260902121216 63 257 17.4 21.7 0.00 0.00 0.00 27 1015.4
20260902120719 63 256 14.8 21.7 0.00 0.00 0.00 27 1015.4
20260902115725 63 257 16.5 22.6 0.00 0.00 0.00 26 1015.5
20260902112246 62 255 16.5 21.7 0.00 0.00 0.00 28 1015.4
20260902111749 62 251 13.9 20.9 0.00 0.00 0.00 28 1015.5
20260902111252 62 250 15.6 22.6 0.00 0.00 0.00 28 1015.6
20260902110755 62 250 15.6 22.6 0.00 0.00 0.00 28 1015.5
20260902110258 62 253 16.5 21.7 0.00 0.00 0.00 28 1015.4
20260902105801 62 248 15.6 20.9 0.00 0.00 0.00 28 1015.6
20260902105306 62 259 16.5 21.7 0.00 0.00 0.00 28 1015.5
20260902104807 62 255 16.5 21.7 0.00 0.00 0.00 28 1015.6
20260902104310 62 257 18.2 22.6 0.00 0.00 0.00 28 1015.6
20260902103813 62 261 18.2 22.6 0.00 0.00 0.00 28 1015.6
20260902103316 62 260 16.5 22.6 0.00 0.00 0.00 28 1015.6
20260902102819 62 259 16.5 24.3 0.00 0.00 0.00 28 1015.7
20260902102322 62 258 18.2 24.3 0.00 0.00 0.00 28 1015.7
20260902101825 62 259 17.4 22.6 0.00 0.00 0.00 28 1015.8
20260902101328 62 257 16.5 22.6 0.00 0.00 0.00 28 1015.8
20260902100831 62 251 16.5 22.6 0.00 0.00 0.00 28 1015.8
20260902100334 62 258 16.5 21.7 0.00 0.00 0.00 28 1015.8
20260902095837 62 253 15.6 22.6 0.00 0.00 0.00 28 1015.8
20260902094843 62 258 16.5 23.5 0.00 0.00 0.00 28 1015.8
20260902094346 62 259 16.5 24.3 0.00 0.00 0.00 28 1015.9
20260902093849 62 261 17.4 24.3 0.00 0.00 0.00 28 1015.8
20260902093352 62 259 17.4 22.6 0.00 0.00 0.00 28 1015.8
20260902092358 62 260 16.5 23.5 0.00 0.00 0.00 28 1015.9
20260902091404 62 255 16.5 22.6 0.00 0.00 0.00 28 1016.0
20260902090907 62 255 14.8 22.6 0.00 0.00 0.00 28 1015.9
20260902090410 62 256 13.9 21.7 0.00 0.00 0.00 28 1016.1
20260902085416 62 255 14.8 21.7 0.00 0.00 0.00 28 1016.3
20260902084919 62 258 16.5 20.9 0.00 0.00 0.00 28 1016.2
20260902083428 62 260 14.8 20.9 0.00 0.00 0.00 28 1016.1
20260902082931 62 257 14.8 20.9 0.00 0.00 0.00 27 1016.2
20260902082434 61 251 14.8 20.9 0.00 0.00 0.00 27 1016.1
20260902081937 0 255 16.5 20.9 0.00 0.00 0.00 27 1016.2
20260902081440 61 256 15.6 20.9 0.00 0.00 0.00 27 1016.2
20260902080943 61 256 14.8 20.9 0.00 0.00 0.00 27 1016.2
20260902080446 61 258 14.8 21.7 0.00 0.00 0.00 27 1016.2
20260902075949 61 256 13.9 22.6 0.00 0.00 0.00 26 1016.1
20260902075452 61 255 16.5 22.6 0.00 0.00 0.00 26 1016.1
20260902074458 61 257 15.6 20.9 0.00 0.00 0.00 26 1016.2
20260902074001 61 259 15.6 20.9 0.00 0.00 0.00 27 1016.2
20260902072510 61 254 13.9 20.9 0.00 0.00 0.00 29 1016.0
20260902072013 61 259 14.8 20.9 0.00 0.00 0.00 29 1016.0
20260902071516 61 258 15.6 20.9 0.00 0.00 0.00 30 1015.8
20260902070025 61 261 14.8 20.9 0.00 0.00 0.00 33 1015.8
20260902065528 61 261 14.8 20.0 0.00 0.00 0.00 33 1016.6
20260902065031 61 260 13.0 20.0 0.00 0.00 0.00 33 1016.6
20260902064534 61 263 13.9 20.9 0.00 0.00 0.00 34 1016.6
20260902064037 61 262 14.8 20.9 0.00 0.00 0.00 34 1016.7
20260902063540 61 261 14.8 21.7 0.00 0.00 0.00 35 1016.6
20260902062049 61 265 14.8 20.9 0.00 0.00 0.00 35 1016.7
20260902061552 61 262 15.6 20.9 0.00 0.00 0.00 35 1016.6
20260902061055 62 262 14.8 20.9 0.00 0.00 0.00 34 1016.4
20260902060558 62 252 14.8 20.0 0.00 0.00 0.00 34 1016.5
20260902060101 61 261 14.8 20.0 0.00 0.00 0.00 34 1016.5
20260902055604 62 256 15.6 20.9 0.00 0.00 0.00 34 1016.5
20260902055107 62 259 15.6 20.9 0.00 0.00 0.00 33 1016.4
20260902054610 62 262 13.9 20.9 0.00 0.00 0.00 32 1016.4
20260902053119 62 256 13.9 22.6 0.00 0.00 0.00 31 1016.4
20260902052622 62 255 15.6 20.9 0.00 0.00 0.00 32 1016.4
20260902052125 62 258 13.0 20.9 0.00 0.00 0.00 31 1016.4
20260902051628 62 259 13.9 20.9 0.00 0.00 0.00 31 1016.4
20260902051131 61 258 15.6 20.9 0.00 0.00 0.00 32 1016.4
20260902050137 61 253 13.0 19.1 0.00 0.00 0.00 33 1016.5
20260902045640 61 255 13.9 19.1 0.00 0.00 0.00 34 1016.4
20260902044646 60 249 13.0 18.2 0.00 0.00 0.00 40 1016.4
20260902044149 60 248 12.2 17.4 0.00 0.00 0.00 45 1016.4
20260902043652 60 249 12.2 17.4 0.00 0.00 0.00 49 1016.4
20260902043155 60 249 13.0 17.4 0.00 0.00 0.00 53 1016.3
20260902042201 60 249 11.3 17.4 0.00 0.00 0.00 54 1016.0
20260902040213 59 264 11.3 15.6 0.00 0.00 0.00 66 1015.8
20260902035716 59 263 10.4 15.6 0.00 0.00 0.00 68 1015.7
20260902035219 59 261 11.3 17.4 0.00 0.00 0.00 67 1015.7
20260902034722 60 253 13.0 18.2 0.00 0.00 0.00 67 1015.6
20260902034225 60 254 12.2 18.2 0.00 0.00 0.00 67 1015.4
20260902033728 60 257 11.3 15.6 0.00 0.00 0.00 67 1015.3
20260902032734 60 257 13.0 20.0 0.00 0.00 0.00 64 1015.3
20260902032237 61 260 12.2 19.1 0.00 0.00 0.00 63 1015.2
20260902031740 61 263 13.0 20.0 0.00 0.00 0.00 63 1015.2
20260902030746 61 262 13.0 20.0 0.00 0.00 0.00 61 1015.1
20260902025752 62 263 13.0 18.2 0.00 0.00 0.00 60 1015.1
20260902025255 62 258 12.2 18.2 0.00 0.00 0.00 59 1015.1
20260902024758 62 262 13.0 17.4 0.00 0.00 0.00 58 1015.0
20260902023804 63 261 12.2 19.1 0.00 0.00 0.00 55 1015.0
20260902022810 64 260 13.0 20.9 0.00 0.00 0.00 53 1014.8
20260902022313 64 269 15.6 20.9 0.00 0.00 0.00 52 1014.9
20260902021816 65 265 15.6 20.9 0.00 0.00 0.00 52 1014.7
20260902020325 66 264 15.6 21.7 0.00 0.00 0.00 51 1014.7
20260902015828 66 261 12.2 20.9 0.00 0.00 0.00 50 1014.8
20260902015331 67 257 13.9 21.7 0.00 0.00 0.00 49 1014.8
20260902014834 67 257 15.6 21.7 0.00 0.00 0.00 48 1014.7
20260902014337 68 260 10.4 21.7 0.00 0.00 0.00 47 1014.8
20260902013840 68 269 16.5 21.7 0.00 0.00 0.00 46 1014.8
20260902013343 68 255 13.9 20.9 0.00 0.00 0.00 45 1014.9
20260902012349 69 263 14.8 21.7 0.00 0.00 0.00 44 1014.9
20260902011852 70 254 15.6 21.7 0.00 0.00 0.00 44 1014.9
20260902011355 70 257 16.5 25.2 0.00 0.00 0.00 44 1014.9
20260902010858 71 272 11.3 25.2 0.00 0.00 0.00 44 1015.2
20260902010401 71 267 15.6 25.2 0.00 0.00 0.00 43 1014.8
20260902005407 72 260 12.2 20.9 0.00 0.00 0.00 43 1015.8
20260902004910 72 265 14.8 20.9 0.00 0.00 0.00 43 1015.9
20260902004413 72 256 12.2 20.9 0.00 0.00 0.00 43 1015.8
20260902003916 72 265 14.8 22.6 0.00 0.00 0.00 43 1015.8
20260902003419 73 263 14.8 22.6 0.00 0.00 0.00 43 1015.7
20260902001928 73 265 13.0 23.5 0.00 0.00 0.00 43 1015.8
20260902001431 74 265 15.6 23.5 0.00 0.00 0.00 43 1015.8
20260902000437 74 268 13.9 20.9 0.00 0.00 0.00 43 1016.0
20260901235940 75 261 14.8 20.9 0.00 0.00 0.00 42 1016.0
20260901235443 75 275 10.4 20.9 0.00 0.00 0.00 42 1016.3
20260901234449 75 258 16.5 23.5 0.00 0.00 0.00 42 1016.2
20260901233952 75 258 13.0 20.9 0.00 0.00 0.00 43 1016.1
20260901233455 75 261 15.6 22.6 0.00 0.00 0.00 43 1016.0
20260901232958 75 255 14.8 22.6 0.00 0.00 0.00 43 1016.2
20260901230513 77 264 15.6 21.7 0.00 0.00 0.00 42 1016.4
20260901230016 77 270 13.0 20.9 0.00 0.00 0.00 42 1016.4
20260901225519 78 253 13.9 20.9 0.00 0.00 0.00 40 1016.4
20260901225022 78 263 11.3 22.6 0.00 0.00 0.00 41 1016.2
20260901224525 78 266 13.0 22.6 0.00 0.00 0.00 41 1016.3
20260901223531 78 262 13.0 22.6 0.00 0.00 0.00 38 1016.4
20260901223034 78 268 15.6 22.6 0.00 0.00 0.00 38 1016.4
20260901221543 79 275 10.4 20.0 0.00 0.00 0.00 38 1016.6
20260901221046 79 271 10.4 20.0 0.00 0.00 0.00 38 1016.6
20260901220549 78 261 10.4 22.6 0.00 0.00 0.00 39 1016.6
20260901220052 78 269 16.5 22.6 0.00 0.00 0.00 37 1016.6
20260901215058 78 279 12.2 22.6 0.00 0.00 0.00 37 1016.8
20260901213607 79 259 11.3 17.4 0.00 0.00 0.00 36 1016.9
20260901213110 78 257 11.3 20.9 0.00 0.00 0.00 36 1017.1
20260901212613 78 259 13.9 22.6 0.00 0.00 0.00 35 1017.2
20260901212116 78 257 14.8 22.6 0.00 0.00 0.00 35 1017.1
20260901211619 79 231 13.9 20.9 0.00 0.00 0.00 34 1017.2
20260901211122 79 247 15.6 20.9 0.00 0.00 0.00 34 1017.2
20260901210128 80 271 13.9 20.0 0.00 0.00 0.00 33 1017.3
20260901205631 80 227 10.4 18.2 0.00 0.00 0.00 33 1017.5
20260901205134 79 231 13.0 18.2 0.00 0.00 0.00 34 1017.4
20260901204637 79 278 9.6 20.0 0.00 0.00 0.00 33 1017.4
20260901203643 79 259 12.2 17.4 0.00 0.00 0.00 33 1017.5
20260901203146 79 257 9.6 17.4 0.00 0.00 0.00 33 1017.5
20260901202649 80 270 8.7 17.4 0.00 0.00 0.00 33 1017.7
20260901202152 80 236 8.7 17.4 0.00 0.00 0.00 34 1017.7
20260901201158 80 250 9.6 17.4 0.00 0.00 0.00 35 1017.8
20260901200701 79 249 9.6 18.2 0.00 0.00 0.00 34 1017.7
20260901200204 80 264 12.2 20.0 0.00 0.00 0.00 34 1017.6
20260901194713 79 253 9.6 18.2 0.00 0.00 0.00 35 1017.7
20260901194216 78 240 8.7 22.6 0.00 0.00 0.00 35 1017.0
20260901193719 78 256 12.2 22.6 0.00 0.00 0.00 33 1017.0
20260901193222 79 271 10.4 17.4 0.00 0.00 0.00 33 1016.9
20260901192228 79 235 9.6 18.2 0.00 0.00 0.00 32 1017.1
20260901191234 78 234 9.6 18.2 0.00 0.00 0.00 32 1017.2
20260901190737 77 238 9.6 18.2 0.00 0.00 0.00 31 1017.1
20260901190240 77 269 11.3 19.1 0.00 0.00 0.00 32 1017.2
20260901184749 77 261 10.4 19.1 0.00 0.00 0.00 31 1017.4
20260901184252 77 264 10.4 18.2 0.00 0.00 0.00 29 1017.5
20260901183755 77 227 12.2 19.1 0.00 0.00 0.00 30 1017.4
20260901183258 77 238 7.8 19.1 0.00 0.00 0.00 32 1017.4
20260901182801 77 232 9.6 21.7 0.00 0.00 0.00 29 1017.5
20260901182305 76 222 11.3 21.7 0.00 0.00 0.00 30 1017.6
20260901181310 76 237 11.3 18.2 0.00 0.00 0.00 30 1017.5
20260901180813 76 254 11.3 18.2 0.00 0.00 0.00 28 1017.5
20260901180316 75 254 7.8 17.4 0.00 0.00 0.00 27 1017.6
20260901175819 75 269 9.6 20.0 0.00 0.00 0.00 25 1017.5
20260901175322 75 259 8.7 20.0 0.00 0.00 0.00 25 1017.5
20260901174328 75 274 7.8 18.2 0.00 0.00 0.00 24 1017.4
20260901173831 75 262 10.4 18.2 0.00 0.00 0.00 25 1017.4
20260901173334 74 235 9.6 16.5 0.00 0.00 0.00 24 1017.3
20260901172837 74 272 9.6 15.6 0.00 0.00 0.00 23 1017.4
20260901172340 74 264 6.1 18.2 0.00 0.00 0.00 23 1017.4
20260901171843 73 255 9.6 18.2 0.00 0.00 0.00 25 1017.3
20260901170849 73 262 10.4 19.1 0.00 3.00 0.00
20260901170352 0 266 7.8 18.2 0.00 0.00 0.00 24 1017.2
20260901165855 72 272 10.4 18.2 0.00 0.00 0.00 24 1017.3
20260901165358 72 259 14.8 18.2 0.00 0.00 0.00 23 1017.3
20260901164901 72 266 10.4 16.5 0.00 0.00 0.00 24 1017.1
20260901164404 72 258 9.6 16.5 0.00 0.00 0.00 24 1017.0
20260901163907 72 247 9.6 16.5 0.00 0.00 0.00 23 1017.0
20260901163410 71 245 9.6 16.5 0.00 0.00 0.00 23 1016.9
20260901162913 71 260 10.4 15.6 0.00 0.00 0.00 23 1017.0
20260901162416 71 253 8.7 16.5 0.00 0.00 0.00 23 1016.8
20260901161919 70 262 10.4 19.1 0.00 0.00 0.00 23 1016.8
20260901161422 70 264 12.2 19.1 0.00 0.00 0.00 23 1016.7
20260901160925 70 268 9.6 18.2 0.00 0.00 0.00 24 1016.6
20260901155931 70 273 10.4 18.2 0.00 0.00 0.00 24 1016.4
20260901155434 69 278 11.3 17.4 0.00 0.00 0.00 24 1016.4
20260901153943 69 277 10.4 17.4 0.00 0.00 0.00 24 1016.2
20260901153446 68 277 12.2 17.4 0.00 0.00 0.00 24 1016.2
20260901151955 68 273 11.3 18.2 0.00 0.00 0.00 24 1016.2
20260901151001 67 270 10.4 15.6 0.00 0.00 0.00 25 1016.3
20260901144516 66 279 9.6 16.5 0.00 0.00 0.00 25 1016.1
20260901144019 66 272 9.6 18.2 0.00 0.00 0.00 25 1016.0
20260901143522 66 267 12.2 18.2 0.00 0.00 0.00 25 1016.0
20260901141534 65 269 10.4 19.1 0.00 0.00 0.00 25 1015.8
20260901140043 65 272 12.2 20.0 0.00 0.00 0.00 25 1015.8
20260901135049 65 264 11.3 20.9 0.00 0.00 0.00 25 1015.7
20260901134552 65 262 12.2 20.9 0.00 0.00 0.00 25 1015.6
20260901134055 65 262 13.0 20.0 0.00 0.00 0.00 25 1015.7
20260901133558 65 257 12.2 19.1 0.00 0.00 0.00 26 1015.5
20260901133101 64 264 11.3 16.5 0.00 0.00 0.00 26 1015.5
20260901132604 64 261 11.3 17.4 0.00 0.00 0.00 26 1015.4
20260901131610 64 254 10.4 16.5 0.00 0.00 0.00 25 1015.4